User: anonymous   Login
Location: Eymir
(36.7333°N, 29.7833°E)
Time: 08:44:24
(UTC+00:00)
Language:

COSMO-SKYMED 1 - Orbit

View from above orbital plane
View from above orbital plane
View from above satellite
View from above satellite

Ground track
Ground track

The orbit is defined by the following mean orbital elements,

1 31598U          26072.94361116 +.00000000 +00000-0 +42908-3 0 00003
2 31598  97.8882 264.0096 0001578  95.4766 264.6635 14.96574619    09
Epoch (UTC): 13 March 2026 22:38:48
Eccentricity: 0.0001578
inclination: 97.8882°
perigee height: 576 km
apogee height: 579 km
right ascension of ascending node: 264.0096°
argument of perigee: 95.4766°
revolutions per day: 14.96574619
mean anomaly at epoch: 264.6635°

The dashed part of the orbit path shows where the satellite is in the earth's shadow,  

DLR